Time,TemperatureF,DewpointF,PressureIn,WindDirection,WindDirectionDegrees,WindSpeedMPH,WindSpeedGustMPH,Humidity,HourlyPrecipIn,Conditions,Clouds,dailyrainin,SoftwareType,DateUTC
2013-03-11 00:00:00,29.7,26.0,29.89,NW,315,9.2,12.1,86,0.00,,,0.00,WUHU216HW,2013-03-11 05:00:00,
2013-03-11 00:05:00,29.7,26.0,29.89,NW,315,6.3,12.8,86,0.00,,,0.00,WUHU216HW,2013-03-11 05:05:00,
2013-03-11 00:10:00,29.7,26.0,29.89,NW,315,12.8,12.8,86,0.00,,,0.00,WUHU216HW,2013-03-11 05:10:00,
2013-03-11 00:15:00,29.7,26.0,29.89,NW,315,10.1,12.8,86,0.00,,,0.00,WUHU216HW,2013-03-11 05:15:00,
2013-03-11 00:20:00,29.7,25.7,29.89,NW,315,13.0,15.4,85,0.00,,,0.00,WUHU216HW,2013-03-11 05:20:00,
2013-03-11 00:25:00,29.5,25.6,29.89,NW,315,9.8,15.4,85,0.00,,,0.00,WUHU216HW,2013-03-11 05:25:00,
2013-03-11 00:30:00,29.7,25.7,29.89,NW,315,8.5,15.0,85,0.00,,,0.00,WUHU216HW,2013-03-11 05:30:00,
2013-03-11 00:35:00,29.5,25.6,29.89,NW,315,9.6,17.0,85,0.00,,,0.00,WUHU216HW,2013-03-11 05:35:00,
2013-03-11 00:40:00,29.5,25.6,29.89,NW,315,12.3,17.0,85,0.00,,,0.00,WUHU216HW,2013-03-11 05:40:00,
2013-03-11 00:45:00,29.5,25.6,29.89,NW,315,13.2,14.1,85,0.00,,,0.00,WUHU216HW,2013-03-11 05:45:00,
2013-03-11 00:50:00,29.5,25.6,29.89,NW,315,7.2,14.1,85,0.00,,,0.00,WUHU216HW,2013-03-11 05:50:00,
2013-03-11 00:55:00,29.5,25.6,29.89,NW,315,10.5,11.9,85,0.00,,,0.00,WUHU216HW,2013-03-11 05:55:00,
2013-03-11 01:00:00,29.3,25.4,29.89,NW,315,6.3,11.9,85,0.00,,,0.00,WUHU216HW,2013-03-11 06:00:00,
2013-03-11 01:05:00,29.3,25.4,29.89,NW,315,6.9,10.5,85,0.00,,,0.00,WUHU216HW,2013-03-11 06:05:00,
2013-03-11 01:10:00,29.3,25.1,29.89,NW,315,4.7,10.5,84,0.00,,,0.00,WUHU216HW,2013-03-11 06:10:00,
2013-03-11 01:15:00,29.3,25.1,29.89,NW,315,8.5,10.5,84,0.00,,,0.00,WUHU216HW,2013-03-11 06:15:00,
2013-03-11 01:20:00,29.3,25.1,29.89,NW,315,6.3,11.2,84,0.00,,,0.00,WUHU216HW,2013-03-11 06:20:00,
2013-03-11 01:25:00,29.3,25.1,29.89,NW,315,9.4,12.1,84,0.00,,,0.00,WUHU216HW,2013-03-11 06:25:00,
2013-03-11 01:30:00,29.3,25.1,29.89,NW,315,6.3,12.5,84,0.00,,,0.00,WUHU216HW,2013-03-11 06:30:00,
2013-03-11 01:35:00,29.2,24.9,29.89,NW,315,8.5,12.5,84,0.00,,,0.00,WUHU216HW,2013-03-11 06:35:00,
2013-03-11 01:40:00,29.2,24.9,29.89,NW,315,9.2,12.1,84,0.00,,,0.00,WUHU216HW,2013-03-11 06:40:00,
2013-03-11 01:45:00,29.2,24.9,29.89,NW,315,13.2,13.2,84,0.00,,,0.00,WUHU216HW,2013-03-11 06:45:00,
2013-03-11 01:50:00,29.2,24.7,29.89,NW,315,13.2,13.9,83,0.00,,,0.00,WUHU216HW,2013-03-11 06:50:00,
2013-03-11 01:55:00,29.0,24.5,29.90,NW,315,8.3,13.9,83,0.00,,,0.00,WUHU216HW,2013-03-11 06:55:00,
2013-03-11 02:00:00,29.0,24.5,29.90,NW,315,9.8,13.2,83,0.00,,,0.00,WUHU216HW,2013-03-11 07:00:00,
2013-03-11 02:05:00,29.0,24.5,29.90,NW,315,9.4,12.8,83,0.00,,,0.00,WUHU216HW,2013-03-11 07:05:00,
2013-03-11 02:10:00,28.8,24.3,29.90,NW,315,4.9,11.0,83,0.00,,,0.00,WUHU216HW,2013-03-11 07:10:00,
2013-03-11 02:15:00,28.8,24.3,29.90,NW,315,7.6,12.8,83,0.00,,,0.00,WUHU216HW,2013-03-11 07:15:00,
2013-03-11 02:20:00,28.8,24.3,29.90,NW,315,5.4,12.8,83,0.00,,,0.00,WUHU216HW,2013-03-11 07:20:00,
2013-03-11 02:25:00,28.6,24.1,29.90,NW,315,12.3,12.3,83,0.00,,,0.00,WUHU216HW,2013-03-11 07:25:00,
2013-03-11 02:30:00,28.4,24.0,29.90,NW,315,13.0,13.0,83,0.00,,,0.00,WUHU216HW,2013-03-11 07:30:00,
2013-03-11 02:35:00,28.4,24.0,29.90,NW,315,8.9,13.0,83,0.00,,,0.00,WUHU216HW,2013-03-11 07:35:00,
2013-03-11 02:40:00,28.4,24.0,29.90,NW,315,8.9,12.8,83,0.00,,,0.00,WUHU216HW,2013-03-11 07:40:00,
2013-03-11 02:45:00,28.3,24.0,29.90,NW,315,13.6,13.6,84,0.00,,,0.00,WUHU216HW,2013-03-11 07:45:00,
2013-03-11 02:50:00,28.3,23.8,29.90,NW,315,8.1,13.6,83,0.00,,,0.00,WUHU216HW,2013-03-11 07:50:00,
2013-03-11 02:55:00,28.1,23.6,29.90,NW,315,10.5,12.1,83,0.00,,,0.00,WUHU216HW,2013-03-11 07:55:00,
2013-03-11 03:00:00,28.1,23.6,29.89,NW,315,11.4,12.8,83,0.00,,,0.00,WUHU216HW,2013-03-11 08:00:00,
2013-03-11 03:05:00,28.1,23.9,29.89,NW,315,5.4,12.8,84,0.00,,,0.00,WUHU216HW,2013-03-11 08:05:00,
2013-03-11 03:10:00,28.1,23.6,29.89,NW,315,9.6,11.6,83,0.00,,,0.00,WUHU216HW,2013-03-11 08:10:00,
2013-03-11 03:15:00,27.9,23.7,29.89,NW,315,11.9,13.4,84,0.00,,,0.00,WUHU216HW,2013-03-11 08:15:00,
2013-03-11 03:20:00,27.9,23.4,29.89,NW,315,10.5,13.4,83,0.00,,,0.00,WUHU216HW,2013-03-11 08:20:00,
2013-03-11 03:25:00,27.7,23.5,29.88,NW,315,10.5,10.5,84,0.00,,,0.00,WUHU216HW,2013-03-11 08:25:00,
2013-03-11 03:30:00,27.7,23.2,29.89,NW,315,11.6,12.1,83,0.00,,,0.00,WUHU216HW,2013-03-11 08:30:00,
2013-03-11 03:35:00,27.7,23.2,29.88,NW,315,10.3,12.1,83,0.00,,,0.00,WUHU216HW,2013-03-11 08:35:00,
2013-03-11 03:40:00,27.5,23.1,29.88,NW,315,7.6,13.6,83,0.00,,,0.00,WUHU216HW,2013-03-11 08:40:00,
2013-03-11 03:45:00,27.7,23.5,29.88,NW,315,7.4,13.6,84,0.00,,,0.00,WUHU216HW,2013-03-11 08:45:00,
2013-03-11 03:50:00,27.5,23.1,29.88,NW,315,4.5,14.3,83,0.00,,,0.00,WUHU216HW,2013-03-11 08:50:00,
2013-03-11 03:55:00,27.5,23.1,29.88,NW,315,13.4,14.3,83,0.00,,,0.00,WUHU216HW,2013-03-11 08:55:00,
2013-03-11 04:00:00,27.5,23.3,29.88,NW,315,7.6,13.4,84,0.00,,,0.00,WUHU216HW,2013-03-11 09:00:00,
2013-03-11 04:05:00,27.5,23.3,29.88,NW,315,9.2,11.0,84,0.00,,,0.00,WUHU216HW,2013-03-11 09:05:00,
2013-03-11 04:10:00,27.5,23.1,29.88,NW,315,11.4,14.8,83,0.00,,,0.00,WUHU216HW,2013-03-11 09:10:00,
2013-03-11 04:15:00,27.4,22.9,29.88,NW,315,11.2,14.8,83,0.00,,,0.00,WUHU216HW,2013-03-11 09:15:00,
2013-03-11 04:20:00,27.2,22.7,29.88,NW,315,7.8,13.6,83,0.00,,,0.00,WUHU216HW,2013-03-11 09:20:00,
2013-03-11 04:25:00,27.2,22.7,29.88,NW,315,13.2,13.6,83,0.00,,,0.00,WUHU216HW,2013-03-11 09:25:00,
2013-03-11 04:30:00,27.2,22.7,29.87,NW,315,10.5,13.2,83,0.00,,,0.00,WUHU216HW,2013-03-11 09:30:00,
2013-03-11 04:35:00,27.2,22.7,29.87,NW,315,8.5,11.9,83,0.00,,,0.00,WUHU216HW,2013-03-11 09:35:00,
2013-03-11 04:40:00,27.2,22.7,29.87,NW,315,9.2,11.0,83,0.00,,,0.00,WUHU216HW,2013-03-11 09:40:00,
2013-03-11 04:45:00,27.2,22.7,29.87,NW,315,8.9,10.1,83,0.00,,,0.00,WUHU216HW,2013-03-11 09:45:00,
2013-03-11 04:50:00,27.2,22.7,29.87,NW,315,7.8,10.1,83,0.00,,,0.00,WUHU216HW,2013-03-11 09:50:00,
2013-03-11 04:55:00,27.2,23.0,29.87,NW,315,6.0,8.5,84,0.00,,,0.00,WUHU216HW,2013-03-11 09:55:00,
2013-03-11 05:00:00,27.2,22.7,29.87,NW,315,6.3,9.6,83,0.00,,,0.00,WUHU216HW,2013-03-11 10:00:00,
2013-03-11 05:05:00,27.2,23.0,29.87,NW,315,6.5,9.6,84,0.00,,,0.00,WUHU216HW,2013-03-11 10:05:00,
2013-03-11 05:10:00,27.2,23.0,29.87,NW,315,9.4,15.0,84,0.00,,,0.00,WUHU216HW,2013-03-11 10:10:00,
2013-03-11 05:15:00,27.2,23.0,29.88,NW,315,11.2,15.0,84,0.00,,,0.00,WUHU216HW,2013-03-11 10:15:00,
2013-03-11 05:20:00,27.2,23.0,29.88,NW,315,9.8,11.2,84,0.00,,,0.00,WUHU216HW,2013-03-11 10:20:00,
2013-03-11 05:25:00,27.2,23.0,29.88,NW,315,8.7,13.4,84,0.00,,,0.00,WUHU216HW,2013-03-11 10:25:00,
2013-03-11 05:30:00,27.2,22.7,29.88,NW,315,6.9,13.4,83,0.00,,,0.00,WUHU216HW,2013-03-11 10:30:00,
2013-03-11 05:35:00,27.0,22.8,29.88,NW,315,9.2,12.3,84,0.00,,,0.00,WUHU216HW,2013-03-11 10:35:00,
2013-03-11 05:40:00,27.0,22.8,29.88,NW,315,7.6,12.3,84,0.00,,,0.00,WUHU216HW,2013-03-11 10:40:00,
2013-03-11 05:45:00,27.0,22.5,29.88,NW,315,9.8,12.8,83,0.00,,,0.00,WUHU216HW,2013-03-11 10:45:00,
2013-03-11 05:50:00,27.0,22.5,29.88,NW,315,11.0,12.8,83,0.00,,,0.00,WUHU216HW,2013-03-11 10:50:00,
2013-03-11 05:55:00,27.0,22.5,29.88,NW,315,9.6,12.1,83,0.00,,,0.00,WUHU216HW,2013-03-11 10:55:00,
2013-03-11 06:00:00,27.0,22.8,29.88,NW,315,10.5,11.2,84,0.00,,,0.00,WUHU216HW,2013-03-11 11:00:00,
2013-03-11 06:05:00,27.0,22.5,29.88,NW,315,6.3,11.4,83,0.00,,,0.00,WUHU216HW,2013-03-11 11:05:00,
2013-03-11 06:10:00,27.0,22.5,29.89,NW,315,10.5,11.4,83,0.00,,,0.00,WUHU216HW,2013-03-11 11:10:00,
2013-03-11 06:15:00,27.0,22.8,29.89,NW,315,9.2,11.4,84,0.00,,,0.00,WUHU216HW,2013-03-11 11:15:00,
2013-03-11 06:20:00,27.0,22.8,29.90,NW,315,9.6,11.4,84,0.00,,,0.00,WUHU216HW,2013-03-11 11:20:00,
2013-03-11 06:25:00,27.0,22.8,29.90,NW,315,12.8,12.8,84,0.00,,,0.00,WUHU216HW,2013-03-11 11:25:00,
2013-03-11 06:30:00,27.0,22.8,29.90,NW,315,12.1,12.8,84,0.00,,,0.00,WUHU216HW,2013-03-11 11:30:00,
2013-03-11 06:35:00,27.0,22.8,29.91,NW,315,10.5,12.1,84,0.00,,,0.00,WUHU216HW,2013-03-11 11:35:00,
2013-03-11 06:40:00,27.0,22.8,29.91,NW,315,8.1,11.0,84,0.00,,,0.00,WUHU216HW,2013-03-11 11:40:00,
2013-03-11 06:45:00,27.0,22.8,29.91,NW,315,10.1,11.6,84,0.00,,,0.00,WUHU216HW,2013-03-11 11:45:00,
2013-03-11 06:50:00,27.0,22.8,29.91,NW,315,9.2,12.1,84,0.00,,,0.00,WUHU216HW,2013-03-11 11:50:00,
2013-03-11 06:55:00,26.8,22.6,29.91,NW,315,10.7,12.1,84,0.00,,,0.00,WUHU216HW,2013-03-11 11:55:00,
2013-03-11 07:00:00,26.8,22.6,29.92,NW,315,10.5,13.2,84,0.00,,,0.00,WUHU216HW,2013-03-11 12:00:00,
2013-03-11 07:05:00,26.8,22.6,29.92,NW,315,6.9,13.2,84,0.00,,,0.00,WUHU216HW,2013-03-11 12:05:00,
2013-03-11 07:10:00,26.8,22.6,29.92,NW,315,9.6,12.3,84,0.00,,,0.00,WUHU216HW,2013-03-11 12:10:00,
2013-03-11 07:15:00,26.8,22.6,29.92,NW,315,9.8,12.3,84,0.00,,,0.00,WUHU216HW,2013-03-11 12:15:00,
2013-03-11 07:20:00,26.8,22.6,29.92,NW,315,8.3,12.1,84,0.00,,,0.00,WUHU216HW,2013-03-11 12:20:00,
2013-03-11 07:25:00,26.8,22.6,29.92,NW,315,9.6,13.6,84,0.00,,,0.00,WUHU216HW,2013-03-11 12:25:00,
2013-03-11 07:30:00,26.6,22.4,29.92,NW,315,11.4,13.6,84,0.00,,,0.00,WUHU216HW,2013-03-11 12:30:00,
2013-03-11 07:35:00,26.6,22.4,29.92,NW,315,12.1,13.4,84,0.00,,,0.00,WUHU216HW,2013-03-11 12:35:00,
2013-03-11 07:40:00,26.6,22.4,29.93,NW,315,12.8,12.8,84,0.00,,,0.00,WUHU216HW,2013-03-11 12:40:00,
2013-03-11 07:45:00,26.6,22.4,29.93,NW,315,12.1,15.7,84,0.00,,,0.00,WUHU216HW,2013-03-11 12:45:00,
2013-03-11 07:50:00,26.6,22.4,29.93,NW,315,8.3,15.7,84,0.00,,,0.00,WUHU216HW,2013-03-11 12:50:00,
2013-03-11 07:55:00,26.5,22.2,29.93,NW,315,6.3,11.6,84,0.00,,,0.00,WUHU216HW,2013-03-11 12:55:00,
2013-03-11 08:00:00,26.5,22.2,29.93,NW,315,11.4,13.0,84,0.00,,,0.00,WUHU216HW,2013-03-11 13:00:00,
2013-03-11 08:05:00,26.5,22.2,29.93,NW,315,11.2,13.0,84,0.00,,,0.00,WUHU216HW,2013-03-11 13:05:00,
2013-03-11 08:10:00,26.5,22.0,29.93,NW,315,7.6,13.0,83,0.00,,,0.00,WUHU216HW,2013-03-11 13:10:00,
2013-03-11 08:15:00,26.5,22.2,29.93,NW,315,11.4,13.0,84,0.00,,,0.00,WUHU216HW,2013-03-11 13:15:00,
2013-03-11 08:20:00,26.5,22.2,29.93,NW,315,11.0,12.1,84,0.00,,,0.00,WUHU216HW,2013-03-11 13:20:00,
2013-03-11 08:25:00,26.3,22.3,29.93,NW,315,10.7,13.4,85,0.00,,,0.00,WUHU216HW,2013-03-11 13:25:00,
2013-03-11 08:30:00,26.3,22.3,29.93,NW,315,11.4,13.4,85,0.00,,,0.00,WUHU216HW,2013-03-11 13:30:00,
2013-03-11 08:35:00,26.3,22.3,29.93,NW,315,12.5,14.3,85,0.00,,,0.00,WUHU216HW,2013-03-11 13:35:00,
2013-03-11 08:40:00,26.5,22.8,29.93,NW,315,12.1,14.3,86,0.00,,,0.00,WUHU216HW,2013-03-11 13:40:00,
2013-03-11 08:45:00,26.5,22.5,29.93,NW,315,11.9,14.1,85,0.00,,,0.00,WUHU216HW,2013-03-11 13:45:00,
2013-03-11 08:50:00,26.5,22.8,29.93,NW,315,10.7,14.1,86,0.00,,,0.00,WUHU216HW,2013-03-11 13:50:00,
2013-03-11 08:55:00,26.3,22.6,29.93,NW,315,9.8,12.8,86,0.00,,,0.00,WUHU216HW,2013-03-11 13:55:00,
2013-03-11 09:00:00,26.3,22.3,29.93,NW,315,10.7,12.8,85,0.00,,,0.00,WUHU216HW,2013-03-11 14:00:00,
2013-03-11 09:05:00,26.1,22.1,29.93,NW,315,9.4,11.0,85,0.00,,,0.00,WUHU216HW,2013-03-11 14:05:00,
2013-03-11 09:10:00,26.3,22.3,29.93,NW,315,9.2,11.0,85,0.00,,,0.00,WUHU216HW,2013-03-11 14:10:00,
2013-03-11 09:15:00,26.5,22.8,29.93,NW,315,11.4,11.4,86,0.00,,,0.00,WUHU216HW,2013-03-11 14:15:00,
2013-03-11 09:20:00,26.3,22.3,29.93,NW,315,15.7,15.7,85,0.00,,,0.00,WUHU216HW,2013-03-11 14:20:00,
2013-03-11 09:25:00,26.3,22.3,29.94,NW,315,9.6,15.7,85,0.00,,,0.00,WUHU216HW,2013-03-11 14:25:00,
2013-03-11 09:30:00,26.1,22.1,29.94,NW,315,12.5,13.2,85,0.00,,,0.00,WUHU216HW,2013-03-11 14:30:00,
2013-03-11 09:35:00,26.1,22.1,29.94,NW,315,13.4,13.6,85,0.00,,,0.00,WUHU216HW,2013-03-11 14:35:00,
2013-03-11 09:40:00,25.9,22.0,29.94,NW,315,12.1,13.6,85,0.00,,,0.00,WUHU216HW,2013-03-11 14:40:00,
2013-03-11 09:45:00,25.9,22.0,29.94,NW,315,13.6,15.0,85,0.00,,,0.00,WUHU216HW,2013-03-11 14:45:00,
2013-03-11 09:50:00,25.9,22.0,29.94,NW,315,8.5,15.0,85,0.00,,,0.00,WUHU216HW,2013-03-11 14:50:00,
2013-03-11 09:55:00,26.3,22.3,29.94,NW,315,11.6,12.8,85,0.00,,,0.00,WUHU216HW,2013-03-11 14:55:00,
2013-03-11 10:00:00,26.3,22.1,29.94,NW,315,7.8,14.5,84,0.00,,,0.00,WUHU216HW,2013-03-11 15:00:00,
2013-03-11 10:05:00,26.5,22.5,29.94,NW,315,11.9,14.5,85,0.00,,,0.00,WUHU216HW,2013-03-11 15:05:00,
2013-03-11 10:10:00,26.3,22.3,29.94,NW,315,11.4,12.1,85,0.00,,,0.00,WUHU216HW,2013-03-11 15:10:00,
2013-03-11 10:16:00,26.5,22.5,29.94,NW,315,12.3,12.3,85,0.00,,,0.00,WUHU216HW,2013-03-11 15:16:00,
2013-03-11 10:21:00,26.5,22.2,29.95,NW,315,13.4,14.5,84,0.00,,,0.00,WUHU216HW,2013-03-11 15:21:00,
2013-03-11 10:26:00,26.6,22.4,29.95,NW,315,13.4,14.5,84,0.00,,,0.00,WUHU216HW,2013-03-11 15:26:00,
2013-03-11 10:31:00,26.8,22.6,29.95,NW,315,11.0,14.3,84,0.00,,,0.00,WUHU216HW,2013-03-11 15:31:00,
2013-03-11 10:36:00,27.0,22.8,29.95,NW,315,12.1,13.6,84,0.00,,,0.00,WUHU216HW,2013-03-11 15:36:00,
2013-03-11 10:41:00,27.0,22.5,29.95,NW,315,9.8,13.9,83,0.00,,,0.00,WUHU216HW,2013-03-11 15:41:00,
2013-03-11 10:46:00,27.0,22.8,29.95,NW,315,7.6,13.9,84,0.00,,,0.00,WUHU216HW,2013-03-11 15:46:00,
2013-03-11 10:51:00,27.0,22.5,29.95,NW,315,13.4,14.3,83,0.00,,,0.00,WUHU216HW,2013-03-11 15:51:00,
2013-03-11 10:56:00,27.4,23.1,29.95,NW,315,9.2,14.3,84,0.00,,,0.00,WUHU216HW,2013-03-11 15:56:00,
2013-03-11 11:01:00,27.4,22.9,29.95,NW,315,14.3,14.3,83,0.00,,,0.00,WUHU216HW,2013-03-11 16:01:00,
2013-03-11 11:06:00,27.4,22.9,29.95,NW,315,12.3,14.3,83,0.00,,,0.00,WUHU216HW,2013-03-11 16:06:00,
2013-03-11 11:11:00,27.4,23.1,29.95,NW,315,9.8,14.5,84,0.00,,,0.00,WUHU216HW,2013-03-11 16:11:00,
2013-03-11 11:16:00,27.5,23.1,29.95,NW,315,13.4,14.5,83,0.00,,,0.00,WUHU216HW,2013-03-11 16:16:00,
2013-03-11 11:21:00,27.7,23.2,29.95,NW,315,10.5,14.8,83,0.00,,,0.00,WUHU216HW,2013-03-11 16:21:00,
2013-03-11 11:26:00,27.9,23.0,29.95,NW,315,14.3,14.8,82,0.00,,,0.00,WUHU216HW,2013-03-11 16:26:00,
2013-03-11 11:31:00,28.1,23.2,29.95,NW,315,7.6,14.8,82,0.00,,,0.00,WUHU216HW,2013-03-11 16:31:00,
2013-03-11 11:36:00,27.9,22.8,29.96,NW,315,12.1,14.8,81,0.00,,,0.00,WUHU216HW,2013-03-11 16:36:00,
2013-03-11 11:41:00,27.7,22.6,29.95,NW,315,11.6,14.3,81,0.00,,,0.00,WUHU216HW,2013-03-11 16:41:00,
2013-03-11 11:46:00,27.7,22.9,29.95,NW,315,10.7,14.3,82,0.00,,,0.00,WUHU216HW,2013-03-11 16:46:00,
2013-03-11 11:51:00,27.7,22.6,29.95,NW,315,12.3,14.8,81,0.00,,,0.00,WUHU216HW,2013-03-11 16:51:00,
2013-03-11 11:56:00,27.9,22.8,29.95,NW,315,11.0,14.8,81,0.00,,,0.00,WUHU216HW,2013-03-11 16:56:00,
2013-03-11 12:02:00,28.1,22.7,29.95,NW,315,9.2,12.1,80,0.00,,,0.00,WUHU216HW,2013-03-11 17:02:00,
2013-03-11 12:07:00,28.1,22.7,29.95,NW,315,7.6,12.1,80,0.00,,,0.00,WUHU216HW,2013-03-11 17:07:00,
2013-03-11 12:12:00,28.4,23.3,29.95,NW,315,11.2,11.4,81,0.00,,,0.00,WUHU216HW,2013-03-11 17:12:00,
2013-03-11 12:17:00,29.2,24.0,29.95,NW,315,12.8,13.0,81,0.00,,,0.00,WUHU216HW,2013-03-11 17:17:00,
2013-03-11 12:22:00,29.5,23.8,29.95,NW,315,13.0,13.0,79,0.00,,,0.00,WUHU216HW,2013-03-11 17:22:00,
2013-03-11 12:27:00,29.3,23.3,29.96,NW,315,13.0,13.6,78,0.00,,,0.00,WUHU216HW,2013-03-11 17:27:00,
2013-03-11 12:32:00,29.5,23.8,29.95,NW,315,7.4,13.6,79,0.00,,,0.00,WUHU216HW,2013-03-11 17:32:00,
2013-03-11 12:37:00,29.7,23.9,29.96,NW,315,10.5,13.4,79,0.00,,,0.00,WUHU216HW,2013-03-11 17:37:00,
2013-03-11 12:42:00,29.7,23.9,29.96,NW,315,11.0,13.4,79,0.00,,,0.00,WUHU216HW,2013-03-11 17:42:00,
2013-03-11 12:47:00,29.5,23.5,29.96,NW,315,12.8,12.8,78,0.00,,,0.00,WUHU216HW,2013-03-11 17:47:00,
2013-03-11 12:52:00,29.9,24.1,29.96,NW,315,9.4,12.8,79,0.00,,,0.00,WUHU216HW,2013-03-11 17:52:00,
2013-03-11 12:57:00,29.9,23.9,29.97,NW,315,6.3,11.6,78,0.00,,,0.00,WUHU216HW,2013-03-11 17:57:00,
2013-03-11 13:02:00,30.1,24.0,29.96,NW,315,10.5,13.4,78,0.00,,,0.00,WUHU216HW,2013-03-11 18:02:00,
2013-03-11 13:07:00,30.1,24.0,29.96,NW,315,9.2,13.4,78,0.00,,,0.00,WUHU216HW,2013-03-11 18:07:00,
2013-03-11 13:12:00,30.2,24.2,29.96,NW,315,12.1,13.2,78,0.00,,,0.00,WUHU216HW,2013-03-11 18:12:00,
2013-03-11 13:17:00,30.2,24.2,29.96,NW,315,11.2,12.1,78,0.00,,,0.00,WUHU216HW,2013-03-11 18:17:00,
2013-03-11 13:22:00,30.6,24.6,29.96,NW,315,8.9,13.9,78,0.00,,,0.00,WUHU216HW,2013-03-11 18:22:00,
2013-03-11 13:27:00,30.6,24.2,29.96,NW,315,9.2,14.1,77,0.00,,,0.00,WUHU216HW,2013-03-11 18:27:00,
2013-03-11 13:32:00,31.1,25.1,29.96,NW,315,11.4,14.1,78,0.00,,,0.00,WUHU216HW,2013-03-11 18:32:00,
2013-03-11 13:37:00,31.3,24.9,29.96,NW,315,7.4,12.8,77,0.00,,,0.00,WUHU216HW,2013-03-11 18:37:00,
2013-03-11 13:42:00,31.7,25.0,29.96,NW,315,11.4,13.4,76,0.00,,,0.00,WUHU216HW,2013-03-11 18:42:00,
2013-03-11 13:47:00,32.8,26.3,29.96,NW,315,9.4,13.4,77,0.00,,,0.00,WUHU216HW,2013-03-11 18:47:00,
2013-03-11 13:52:00,33.5,26.0,29.96,NW,315,9.8,12.8,74,0.00,,,0.00,WUHU216HW,2013-03-11 18:52:00,
2013-03-11 13:57:00,33.5,26.3,29.96,NW,315,10.3,12.3,75,0.00,,,0.00,WUHU216HW,2013-03-11 18:57:00,
2013-03-11 14:02:00,32.6,24.6,29.96,NW,315,9.8,11.6,72,0.00,,,0.00,WUHU216HW,2013-03-11 19:02:00,
2013-03-11 14:07:00,32.2,24.8,29.96,NW,315,9.4,13.4,74,0.00,,,0.00,WUHU216HW,2013-03-11 19:07:00,
2013-03-11 14:12:00,32.4,25.0,29.96,NW,315,11.6,14.8,74,0.00,,,0.00,WUHU216HW,2013-03-11 19:12:00,
2013-03-11 14:17:00,32.0,24.7,29.96,NW,315,10.1,14.8,74,0.00,,,0.00,WUHU216HW,2013-03-11 19:17:00,
2013-03-11 14:23:00,32.0,25.0,29.95,NW,315,7.6,12.3,75,0.00,,,0.00,WUHU216HW,2013-03-11 19:23:00,
2013-03-11 14:28:00,31.9,25.2,29.96,NW,315,11.2,12.8,76,0.00,,,0.00,WUHU216HW,2013-03-11 19:28:00,
2013-03-11 14:33:00,31.9,24.8,29.95,NW,315,8.7,15.0,75,0.00,,,0.00,WUHU216HW,2013-03-11 19:33:00,
2013-03-11 14:38:00,32.0,24.7,29.95,NW,315,9.8,15.0,74,0.00,,,0.00,WUHU216HW,2013-03-11 19:38:00,
2013-03-11 14:43:00,32.6,24.6,29.95,NW,315,12.1,13.9,72,0.00,,,0.00,WUHU216HW,2013-03-11 19:43:00,
2013-03-11 14:48:00,32.4,24.4,29.95,NW,315,12.1,13.9,72,0.00,,,0.00,WUHU216HW,2013-03-11 19:48:00,
2013-03-11 14:53:00,32.6,24.6,29.95,NW,315,11.6,13.9,72,0.00,,,0.00,WUHU216HW,2013-03-11 19:53:00,
2013-03-11 14:58:00,32.4,24.7,29.95,NW,315,11.9,13.9,73,0.00,,,0.00,WUHU216HW,2013-03-11 19:58:00,
2013-03-11 15:03:00,31.9,23.9,29.95,NW,315,10.3,13.6,72,0.00,,,0.00,WUHU216HW,2013-03-11 20:03:00,
2013-03-11 15:08:00,31.9,24.2,29.95,NW,315,11.0,13.6,73,0.00,,,0.00,WUHU216HW,2013-03-11 20:08:00,
2013-03-11 15:13:00,31.5,24.1,29.95,NW,315,11.4,12.8,74,0.00,,,0.00,WUHU216HW,2013-03-11 20:13:00,
2013-03-11 15:18:00,31.3,23.7,29.95,NW,315,13.4,13.4,73,0.00,,,0.00,WUHU216HW,2013-03-11 20:18:00,
2013-03-11 15:23:00,31.3,23.7,29.95,NW,315,11.0,13.4,73,0.00,,,0.00,WUHU216HW,2013-03-11 20:23:00,
2013-03-11 15:28:00,31.0,23.3,29.95,NW,315,8.5,13.2,73,0.00,,,0.00,WUHU216HW,2013-03-11 20:28:00,
2013-03-11 15:33:00,31.0,23.3,29.95,NW,315,11.6,11.6,73,0.00,,,0.00,WUHU216HW,2013-03-11 20:33:00,
2013-03-11 15:38:00,31.0,23.3,29.95,NW,315,11.4,13.2,73,0.00,,,0.00,WUHU216HW,2013-03-11 20:38:00,
2013-03-11 15:43:00,31.3,23.7,29.94,NW,315,10.5,13.2,73,0.00,,,0.00,WUHU216HW,2013-03-11 20:43:00,
2013-03-11 15:48:00,33.1,25.0,29.94,WNW,293,6.0,10.5,72,0.00,,,0.00,WUHU216HW,2013-03-11 20:48:00,
2013-03-11 15:53:00,35.6,26.8,29.94,WNW,293,10.7,10.7,70,0.00,,,0.00,WUHU216HW,2013-03-11 20:53:00,
2013-03-11 15:58:00,36.2,25.9,29.94,West,270,8.7,10.7,66,0.00,,,0.00,WUHU216HW,2013-03-11 20:58:00,
2013-03-11 16:03:00,36.7,25.7,29.94,West,270,10.1,11.0,64,0.00,,,0.00,WUHU216HW,2013-03-11 21:03:00,
2013-03-11 16:08:00,37.3,25.8,29.94,SW,225,8.7,11.0,63,0.00,,,0.00,WUHU216HW,2013-03-11 21:08:00,
2013-03-11 16:13:00,37.3,25.5,29.94,SW,225,6.7,11.4,62,0.00,,,0.00,WUHU216HW,2013-03-11 21:13:00,
2013-03-11 16:18:00,37.3,25.0,29.94,WNW,293,10.5,13.4,61,0.00,,,0.00,WUHU216HW,2013-03-11 21:18:00,
2013-03-11 16:23:00,37.8,26.3,29.94,NNW,338,7.2,13.4,63,0.00,,,0.00,WUHU216HW,2013-03-11 21:23:00,
2013-03-11 16:28:00,38.2,26.7,29.94,NW,315,9.8,12.1,63,0.00,,,0.00,WUHU216HW,2013-03-11 21:28:00,
2013-03-11 16:33:00,38.5,26.6,29.94,WNW,293,11.4,12.1,62,0.00,,,0.00,WUHU216HW,2013-03-11 21:33:00,
2013-03-11 16:38:00,38.7,26.0,29.95,NW,315,11.4,12.8,60,0.00,,,0.00,WUHU216HW,2013-03-11 21:38:00,
2013-03-11 16:43:00,38.5,25.4,29.95,West,270,9.6,12.8,59,0.00,,,0.00,WUHU216HW,2013-03-11 21:43:00,
2013-03-11 16:48:00,38.5,25.8,29.95,NW,315,9.4,11.0,60,0.00,,,0.00,WUHU216HW,2013-03-11 21:48:00,
2013-03-11 16:53:00,38.5,25.4,29.95,WNW,293,11.4,12.5,59,0.00,,,0.00,WUHU216HW,2013-03-11 21:53:00,
2013-03-11 16:58:00,38.5,24.9,29.95,WNW,293,9.2,13.9,58,0.00,,,0.00,WUHU216HW,2013-03-11 21:58:00,
2013-03-11 17:03:00,38.5,24.9,29.95,West,270,6.9,13.9,58,0.00,,,0.00,WUHU216HW,2013-03-11 22:03:00,
2013-03-11 17:08:00,38.5,25.4,29.95,NW,315,8.5,11.4,59,0.00,,,0.00,WUHU216HW,2013-03-11 22:08:00,
2013-03-11 17:13:00,39.1,25.5,29.95,NW,315,15.2,15.2,58,0.00,,,0.00,WUHU216HW,2013-03-11 22:13:00,
2013-03-11 17:18:00,39.4,25.7,29.95,West,270,7.6,15.2,58,0.00,,,0.00,WUHU216HW,2013-03-11 22:18:00,
2013-03-11 17:23:00,39.4,24.9,29.95,WNW,293,9.2,12.3,56,0.00,,,0.00,WUHU216HW,2013-03-11 22:23:00,
2013-03-11 17:28:00,39.2,25.2,29.95,NW,315,11.0,11.0,57,0.00,,,0.00,WUHU216HW,2013-03-11 22:28:00,
2013-03-11 17:33:00,39.2,25.2,29.95,West,270,6.5,11.0,57,0.00,,,0.00,WUHU216HW,2013-03-11 22:33:00,
2013-03-11 17:38:00,39.6,25.5,29.96,NNW,338,6.0,9.8,57,0.00,,,0.00,WUHU216HW,2013-03-11 22:38:00,
2013-03-11 17:43:00,39.4,24.5,29.96,West,270,11.9,11.9,55,0.00,,,0.00,WUHU216HW,2013-03-11 22:43:00,
2013-03-11 17:48:00,39.1,24.6,29.96,NW,315,9.2,11.9,56,0.00,,,0.00,WUHU216HW,2013-03-11 22:48:00,
2013-03-11 17:53:00,38.9,24.4,29.96,NNW,338,5.4,11.2,56,0.00,,,0.00,WUHU216HW,2013-03-11 22:53:00,
2013-03-11 17:58:00,38.5,24.1,29.96,NW,315,11.4,13.6,56,0.00,,,0.00,WUHU216HW,2013-03-11 22:58:00,
2013-03-11 18:03:00,38.2,24.2,29.96,West,270,11.9,13.6,57,0.00,,,0.00,WUHU216HW,2013-03-11 23:03:00,
2013-03-11 18:08:00,38.0,24.5,29.96,NW,315,9.8,13.6,58,0.00,,,0.00,WUHU216HW,2013-03-11 23:08:00,
2013-03-11 18:13:00,38.0,24.0,29.96,NW,315,9.8,11.9,57,0.00,,,0.00,WUHU216HW,2013-03-11 23:13:00,
2013-03-11 18:18:00,38.2,24.7,29.96,WNW,293,7.2,11.9,58,0.00,,,0.00,WUHU216HW,2013-03-11 23:18:00,
2013-03-11 18:23:00,38.3,24.8,29.96,NW,315,6.7,10.5,58,0.00,,,0.00,WUHU216HW,2013-03-11 23:23:00,
2013-03-11 18:28:00,38.0,24.0,29.97,NNW,338,7.6,8.9,57,0.00,,,0.00,WUHU216HW,2013-03-11 23:28:00,
2013-03-11 18:33:00,37.3,23.9,29.97,WNW,293,8.1,8.9,58,0.00,,,0.00,WUHU216HW,2013-03-11 23:33:00,
2013-03-11 18:38:00,36.2,23.7,29.97,NNW,338,4.0,8.1,60,0.00,,,0.00,WUHU216HW,2013-03-11 23:38:00,
2013-03-11 18:43:00,35.5,23.0,29.97,West,270,5.8,8.1,60,0.00,,,0.00,WUHU216HW,2013-03-11 23:43:00,
2013-03-11 18:48:00,34.9,22.9,29.97,WNW,293,7.2,7.2,61,0.00,,,0.00,WUHU216HW,2013-03-11 23:48:00,
2013-03-11 18:53:00,34.2,22.5,29.97,WNW,293,6.3,7.2,62,0.00,,,0.00,WUHU216HW,2013-03-11 23:53:00,
2013-03-11 18:58:00,34.2,22.9,29.97,WNW,293,4.3,6.7,63,0.00,,,0.00,WUHU216HW,2013-03-11 23:58:00,
2013-03-11 19:03:00,33.8,22.9,29.97,West,270,4.0,5.6,64,0.00,,,0.00,WUHU216HW,2013-03-12 00:03:00,
2013-03-11 19:08:00,33.5,22.9,29.98,NW,315,3.6,5.4,65,0.00,,,0.00,WUHU216HW,2013-03-12 00:08:00,
2013-03-11 19:13:00,33.3,23.1,29.98,WNW,293,4.5,5.6,66,0.00,,,0.00,WUHU216HW,2013-03-12 00:13:00,
2013-03-11 19:18:00,32.8,23.0,29.99,WNW,293,2.7,5.6,67,0.00,,,0.00,WUHU216HW,2013-03-12 00:18:00,
2013-03-11 19:23:00,32.6,23.1,30.00,WNW,293,4.0,4.0,68,0.00,,,0.00,WUHU216HW,2013-03-12 00:23:00,
2013-03-11 19:28:00,32.4,23.1,30.00,WNW,293,3.1,4.5,68,0.00,,,0.00,WUHU216HW,2013-03-12 00:28:00,
2013-03-11 19:33:00,32.2,22.9,30.01,NW,315,3.1,5.4,68,0.00,,,0.00,WUHU216HW,2013-03-12 00:33:00,
2013-03-11 19:38:00,32.0,23.0,30.00,NW,315,3.4,5.4,69,0.00,,,0.00,WUHU216HW,2013-03-12 00:38:00,
2013-03-11 19:43:00,32.0,23.0,30.00,WNW,293,3.1,4.3,69,0.00,,,0.00,WUHU216HW,2013-03-12 00:43:00,
2013-03-11 19:48:00,31.9,22.9,30.01,WNW,293,3.6,4.3,69,0.00,,,0.00,WUHU216HW,2013-03-12 00:48:00,
2013-03-11 19:53:00,31.7,22.7,30.00,WNW,293,2.5,3.6,69,0.00,,,0.00,WUHU216HW,2013-03-12 00:53:00,
2013-03-11 19:58:00,31.5,22.5,30.01,West,270,1.8,2.7,69,0.00,,,0.00,WUHU216HW,2013-03-12 00:58:00,
2013-03-11 20:03:00,31.5,22.5,30.00,WNW,293,1.8,2.7,69,0.00,,,0.00,WUHU216HW,2013-03-12 01:03:00,
2013-03-11 20:08:00,31.5,22.9,30.00,WNW,293,1.1,2.2,70,0.00,,,0.00,WUHU216HW,2013-03-12 01:08:00,
2013-03-11 20:13:00,31.3,22.7,30.00,West,270,0.0,2.0,70,0.00,,,0.00,WUHU216HW,2013-03-12 01:13:00,
2013-03-11 20:18:00,31.3,22.7,30.00,SW,225,0.7,1.1,70,0.00,,,0.00,WUHU216HW,2013-03-12 01:18:00,
2013-03-11 20:23:00,31.3,22.7,30.00,SW,225,0.7,0.7,70,0.00,,,0.00,WUHU216HW,2013-03-12 01:23:00,
2013-03-11 20:28:00,31.3,23.1,30.00,SW,225,0.0,0.7,71,0.00,,,0.00,WUHU216HW,2013-03-12 01:28:00,
2013-03-11 20:33:00,31.3,22.7,30.00,SW,225,0.0,0.4,70,0.00,,,0.00,WUHU216HW,2013-03-12 01:33:00,
2013-03-11 20:38:00,31.3,23.1,30.01,WNW,293,1.1,1.1,71,0.00,,,0.00,WUHU216HW,2013-03-12 01:38:00,
2013-03-11 20:44:00,31.1,22.9,30.01,WNW,293,0.4,1.8,71,0.00,,,0.00,WUHU216HW,2013-03-12 01:44:00,
2013-03-11 20:49:00,30.8,22.5,30.01,West,270,0.7,1.8,71,0.00,,,0.00,WUHU216HW,2013-03-12 01:49:00,
2013-03-11 20:54:00,30.6,22.6,30.01,WNW,293,0.2,0.7,72,0.00,,,0.00,WUHU216HW,2013-03-12 01:54:00,
2013-03-11 20:59:00,30.4,22.8,30.01,West,270,0.2,0.7,73,0.00,,,0.00,WUHU216HW,2013-03-12 01:59:00,
2013-03-11 21:04:00,30.2,22.6,30.01,WSW,248,0.0,0.4,73,0.00,,,0.00,WUHU216HW,2013-03-12 02:04:00,
2013-03-11 21:09:00,30.2,22.6,30.01,NNE,23,0.2,0.2,73,0.00,,,0.00,WUHU216HW,2013-03-12 02:09:00,
2013-03-11 21:14:00,30.1,22.8,30.00,NNE,23,0.2,0.4,74,0.00,,,0.00,WUHU216HW,2013-03-12 02:14:00,
2013-03-11 21:19:00,29.9,22.9,30.00,NNE,23,0.7,0.9,75,0.00,,,0.00,WUHU216HW,2013-03-12 02:19:00,
2013-03-11 21:24:00,29.9,22.6,30.00,NNE,23,0.0,0.9,74,0.00,,,0.00,WUHU216HW,2013-03-12 02:24:00,
2013-03-11 21:29:00,30.1,23.0,30.01,NNE,23,0.0,0.7,75,0.00,,,0.00,WUHU216HW,2013-03-12 02:29:00,
2013-03-11 21:34:00,29.9,22.9,30.00,NNE,23,0.0,0.0,75,0.00,,,0.00,WUHU216HW,2013-03-12 02:34:00,
2013-03-11 21:39:00,29.7,22.7,30.01,WNW,293,0.7,0.7,75,0.00,,,0.00,WUHU216HW,2013-03-12 02:39:00,
2013-03-11 21:44:00,29.5,22.5,30.01,SW,225,0.7,1.3,75,0.00,,,0.00,WUHU216HW,2013-03-12 02:44:00,
2013-03-11 21:48:00,29.3,22.7,30.01,WSW,248,0.7,1.3,76,0.00,,,0.00,WUHU216HW,2013-03-12 02:48:00,
2013-03-11 21:53:00,29.2,22.5,30.02,WNW,293,0.4,1.1,76,0.00,,,0.00,WUHU216HW,2013-03-12 02:53:00,
2013-03-11 21:58:00,29.0,22.1,30.02,WNW,293,1.1,1.1,75,0.00,,,0.00,WUHU216HW,2013-03-12 02:58:00,
2013-03-11 22:03:00,29.2,22.2,30.02,WNW,293,0.9,1.1,75,0.00,,,0.00,WUHU216HW,2013-03-12 03:03:00,
2013-03-11 22:08:00,29.2,22.5,30.02,NW,315,0.7,1.1,76,0.00,,,0.00,WUHU216HW,2013-03-12 03:08:00,
2013-03-11 22:13:00,29.3,22.4,30.02,NW,315,1.6,1.6,75,0.00,,,0.00,WUHU216HW,2013-03-12 03:13:00,
2013-03-11 22:18:00,29.5,22.9,30.02,NW,315,1.1,1.6,76,0.00,,,0.00,WUHU216HW,2013-03-12 03:18:00,
2013-03-11 22:23:00,29.5,22.9,30.02,WNW,293,1.8,2.2,76,0.00,,,0.00,WUHU216HW,2013-03-12 03:23:00,
2013-03-11 22:28:00,29.5,22.5,30.02,WNW,293,0.7,2.7,75,0.00,,,0.00,WUHU216HW,2013-03-12 03:28:00,
2013-03-11 22:33:00,29.3,22.4,30.01,North,0,0.4,2.7,75,0.00,,,0.00,WUHU216HW,2013-03-12 03:33:00,
2013-03-11 22:38:00,29.2,22.2,30.01,NNW,338,0.4,1.1,75,0.00,,,0.00,WUHU216HW,2013-03-12 03:38:00,
2013-03-11 22:43:00,29.0,22.3,30.01,WNW,293,0.7,1.3,76,0.00,,,0.00,WUHU216HW,2013-03-12 03:43:00,
2013-03-11 22:48:00,28.4,21.8,30.03,NW,315,2.2,2.2,76,0.00,,,0.00,WUHU216HW,2013-03-12 03:48:00,
2013-03-11 22:53:00,28.4,22.2,30.03,WNW,293,3.1,3.6,77,0.00,,,0.00,WUHU216HW,2013-03-12 03:53:00,
2013-03-11 22:58:00,28.6,22.3,30.03,WNW,293,2.9,4.0,77,0.00,,,0.00,WUHU216HW,2013-03-12 03:58:00,
2013-03-11 23:00:00,28.6,22.3,30.03,WNW,293,2.5,4.0,77,0.00,,,0.00,WUHU216HW,2013-03-12 04:00:00,
2013-03-11 23:05:00,28.8,22.1,30.02,NW,315,1.3,3.4,76,0.00,,,0.00,WUHU216HW,2013-03-12 04:05:00,
2013-03-11 23:10:00,29.0,22.3,30.02,NW,315,2.5,2.5,76,0.00,,,0.00,WUHU216HW,2013-03-12 04:10:00,
2013-03-11 23:15:00,29.0,22.3,30.02,NW,315,1.8,2.5,76,0.00,,,0.00,WUHU216HW,2013-03-12 04:15:00,
2013-03-11 23:20:00,29.0,22.3,30.02,NNW,338,2.5,2.5,76,0.00,,,0.00,WUHU216HW,2013-03-12 04:20:00,
2013-03-11 23:25:00,29.0,22.1,30.02,NW,315,1.8,2.5,75,0.00,,,0.00,WUHU216HW,2013-03-12 04:25:00,
2013-03-11 23:30:00,28.8,21.9,30.02,NW,315,2.5,2.5,75,0.00,,,0.00,WUHU216HW,2013-03-12 04:30:00,
2013-03-11 23:35:00,28.6,22.0,30.02,NW,315,2.5,2.9,76,0.00,,,0.00,WUHU216HW,2013-03-12 04:35:00,
2013-03-11 23:40:00,28.6,22.0,30.02,WNW,293,1.8,2.9,76,0.00,,,0.00,WUHU216HW,2013-03-12 04:40:00,
2013-03-11 23:45:00,28.4,21.8,30.03,WNW,293,2.5,2.7,76,0.00,,,0.00,WUHU216HW,2013-03-12 04:45:00,
2013-03-11 23:50:00,28.4,21.8,30.03,WNW,293,1.8,2.7,76,0.00,,,0.00,WUHU216HW,2013-03-12 04:50:00,
2013-03-11 23:55:00,28.6,22.3,30.04,NW,315,3.1,3.1,77,0.00,,,0.00,WUHU216HW,2013-03-12 04:55:00,